NINGXIA-1 7

Satellite information

Favourite Embed

Satellite Type and Status

PAYLOADIN ORBIT

Key statistics

Satellite NINGXIA-1 7 at a glance.

Uptime

1400

Days in orbit

Revolutions

≈ 14.1

Per day

Orbit

LEO

Low Earth Orbit

Inclination

45.0

Latest

Satellite identification and parameters

Extended collection of information and parameters for NINGXIA-1 7.

Object identification

Identified? True

Debris? False

Object name: NINGXIA-1 7

International designator: 2021-064B

Object number (NORAD): 49019

Object ID (CCSDS): 49019

Country: PEOPLES REPUBLIC OF CHINA (PRC)

Current information (Y/N): Y

RCS size: MEDIUM

Orbital parameters

Period: 102.238 minutes

Inclination: 45.0035 deg

SMA: 7242.706 km

Apoapsis: 869.349 km

Periapsis: 859.792 km

RAAN: 257.8226 deg

Eccentricy: 0.0006598

Argument of periapsis: 103.5292 deg

Mean anomaly: 256.6279 deg

Mean motion: 14.0848265 rev/day

Mean motion (dot): -0.00000035 rev/day2

B* drag term: 0.000056224 1/REarth

Two-line elements (TLE)

Creation date: May 8, 2025, 3:01 a.m.

Reference frame: TEME

Reference center: EARTH

Epoch: May 7, 2025, 11:03 p.m. UTC

TLE line 0: 0 NINGXIA-1 7

TLE line 1: 1 49019U 21064B 25127.96049650 -.00000035 00000-0 56224-4 0 9994

TLE line 2: 2 49019 45.0035 257.8226 0006598 103.5292 256.6279 14.08482650197118

Live tracking on map

Real-time ground track for satellite NINGXIA-1 7.

In-orbit conjunctions

There are no conjunctions computed for NINGXIA-1 7, at the moment. Check back to stay up to date, as we update our databases every day.

Go to all conjunctions

Associated space launch

The Ningxin-1 satellites (also called Zhongzi) are a series of Chinese commercial remote sensing satellite owned by Ningxia Jingui Information Technology Co. Ltd. The satellites were built by DFH Satellite Co. Ltd of CAST. They have been reported to be a commercial operated global EM spectrum signal monitoring satellite system (SIGINT).

NINGXIA-1 7 was lifted into orbit during the mission ‘Long March 6 | Zhongzi Group 02 (Ningxia-1-02)’, on board a Long March 6 space rocket.

The launch took place on July 9, 2021, 11:59 a.m. from Launch Complex 16.

For more information about the launch, click the button.

Launch to space Long March 6 | Zhongzi Group 02 (Ningxia-1-02)
Long March 6 | Zhongzi Group 02 (Ningxia-1-02)

Agency: N/A

Status: Launch Successful

Launch date: July 9, 2021, 11:59 a.m. UTC

Rocket: Long March 6

Launch pad: Launch Complex 16

Location: Taiyuan Satellite Launch Center, People's Republic of China

...

Latest news about this satellite

News about space launch
China’s Long March 6 launches five satellites

China successfully launched a Chang Zheng 6 rocket from LC-16 at the Taiyuan Satellite Launch Center at 11:59 UTC (7:59 PM Beijing time) on Friday July 9.  This launch is the sixth launch of the Chang Zheng 6 (CZ-6), also known as the Long March 6, and th...


Newsletter sign-up

Weekly statistics, charts and insights to help you stay on top of the space industry.